Weather Roundup
Issued by NWS Springfield, MO

Home | Current Version | Previous Version | Text Only | Print | Product List | Glossary On
Versions: 1 2 3 4 5 6 7 8 9 10 11 12 13 14 15 16 17 18 19 20 21 22 23 24 25 26 27 28 29 30 31 32 33 34 35 36 37 38 39 40 41 42 43 44 45 46 47 48 49 50
000
NZUS99 KSGF 260907
HRRSGF

HOURLY WEATHER
NATIONAL WEATHER SERVICE SPRINGFIELD MO
400 AM CDT SUN APR 26 2015

......SGF CWA......

CITY           SKY/WX    TMP DP  RH WIND       PRES   REMARKS
SPRINGFIELD    CLOUDY    53  51  93 N9        29.77R
JOPLIN         CLOUDY    53  49  86 NE10      29.78S
WEST PLAINS    CLOUDY    54  51  90 N13       29.75R
ROLLA          CLOUDY    46  46 100 N12       29.80R FOG
OSAGE BEACH    CLOUDY    48  45  87 NE10      29.82R
BRANSON        CLOUDY    55  50  82 N5        29.77S

......SURROUNDING SGF CWA......

CITY           SKY/WX    TMP DP  RH WIND       PRES   REMARKS
CHANUTE        CLOUDY    51  50  96 NE10      29.80R FOG
PARSONS        CLOUDY    53  50  89 NE9       29.79S
COFFEYVILLE    CLOUDY    54  50  86 NE13      29.77R
EMPORIA        CLOUDY    49  46  90 NE13      29.82R
GROVE OK       CLOUDY    57  54  88 NE7       29.77S
ROGERS AR      CLOUDY    56  52  86 NE9       29.77R
SILOAM SPRINGS CLOUDY    57  48  72 NE7       29.76R
HARRISON AR    CLOUDY    56  52  86 N6        29.77R
NEAR YELLVILLE CLOUDY    59  52  77 N3        29.74R

......KANSAS AND MISSOURI......

CITY           SKY/WX    TMP DP  RH WIND       PRES   REMARKS
KANSAS CTY INT DRIZZLE   48  46  93 NE12      29.86R
DOWNTOWN KC    CLOUDY    50  46  86 NE13      29.85R
COLUMBIA       CLOUDY    47  44  90 NE10      29.85R
ST JOSEPH      CLOUDY    48  44  86 E8        29.89R FOG
ST LOUIS       CLOUDY    48  43  81 NE10      29.83R
SPIRIT OF STL  CLOUDY    48  43  82 NE10      29.83R
KIRKSVILLE     CLOUDY    46  41  82 NE7       29.90R
WICHITA        CLOUDY    51  47  86 NE17      29.79R
TOPEKA         CLOUDY    50  47  89 NE9       29.85R
OLATHE         CLOUDY    49  47  93 NE13G18   29.83R FOG

......TENNESSEE......

CITY           SKY/WX    TMP DP  RH WIND       PRES   REMARKS
MEMPHIS        CLEAR     64  58  80 NE3       29.67R
NASHVILLE      CLOUDY    61  59  93 W6        29.63R

......ARKANSAS.......

CITY           SKY/WX    TMP DP  RH WIND       PRES   REMARKS
FAYETTEVILLE   MOCLDY    54  54 100 N3        29.74S
FT SMITH       CLEAR     59  53  80 CALM      29.69S
LITTLE ROCK    CLEAR     62  52  69 N6        29.69R

......OKLAHOMA.......

CITY           SKY/WX    TMP DP  RH WIND       PRES   REMARKS
TULSA          CLOUDY    59  53  80 NE13      29.73R
PONCA CITY     CLOUDY    57  52  83 E13       29.76R
MCALESTER      PTCLDY    62  55  77 NE6       29.68S
OKLAHOMA CITY  PTCLDY    62  53  72 E14G22    29.68R

......IOWA............

CITY           SKY/WX    TMP DP  RH WIND       PRES   REMARKS
DES MOINES     CLOUDY    48  37  65 E7        29.95R
QUAD CITIES    CLEAR     41  31  67 N3        29.93R

......ILLINOIS........

CITY           SKY/WX    TMP DP  RH WIND       PRES   REMARKS
QUINCY         CLOUDY    44  39  82 NE15      29.87S
CHICAGO        CLEAR     36  29  75 N7        29.90R WCI  30



USA.gov is the U.S. government's official web portal to all federal, state and local government web resources and services.